Weather History for LIMH - December, 2012

Change the Weather History Date:

Saturday, December 8, 2012

  Actual Average Record
Temperature  
Mean Temperature 0 °F -  
Max Temperature 1 °F 18 °F 26 °F (2004)
Min Temperature -1 °F 8 °F -5 °F (1998)
Degree Days  
Heating Degree Days 65    
Moisture  
Dew Point -5 °F    
Average Humidity 76    
Maximum Humidity 85    
Minimum Humidity 68    
Precipitation  
Precipitation 0.00 in - - ()
Sea Level Pressure  
Sea Level Pressure 29.45 in    
Wind  
Wind Speed 23 mph ()    
Max Wind Speed 43 mph    
Max Gust Speed -    
Visibility 1.0 miles    
Events Fog , Snow    
Averages and records for this station are not official NWS values.
T = Trace of Precipitation, MM = Missing Value Source: Averaged Metar Reports

Daily Weather History Graph

Daily Weather History Graph

Search for Another Location

Airport or City:

Trip Planner

Search our weather history database for the weather conditions in past years. The results will help you decide how hot, cold, wet, or windy it might be!

Date:

Astronomy

Dec. 08, 2012 Rise Set
Actual Time 7:58 AM CET 4:44 PM CET
Civil Twilight 7:23 AM CET 5:18 PM CET
Nautical Twilight 6:46 AM CET 5:56 PM CET
Astronomical Twilight 6:10 AM CET 6:32 PM CET
Moon 1:49 AM CET (12/8) 1:18 PM CET (12/8)
Length of Visible Light 9h 54m
Length of Day
8h 45m
Waning Crescent, 31% of the Moon is Illuminated
Dec 8
Waning Crescent
Dec 13
New
Dec 20
First Quarter
Dec 28
Full
Jan 5
Last Quarter

Hourly Weather History & Observations

Time (CET) Temp. Windchill Dew Point Humidity Pressure Visibility Wind Dir Wind Speed Gust Speed Precip Events Conditions
12:55 AM 1.4 °F -14.5 °F -4.0 °F 78% 29.27 in 0.1 mi NNE 10.4 mph - N/A Fog , Snow Light Snow
1:00 AM 1 °F - -4 °F 68%  in 0 mi NNE 10.4 mph - - Snow Light Snow
1:55 AM -0.4 °F -21.2 °F -5.8 °F 78% 29.27 in 0.2 mi North 17.3 mph - N/A Fog , Snow Light Snow
2:55 AM -0.4 °F -21.7 °F -5.8 °F 78% 29.27 in 0.1 mi NW 18.4 mph - N/A Fog , Snow Light Snow
3:55 AM 1.4 °F -19.4 °F -4.0 °F 78% 29.27 in 0.1 mi West 18.4 mph - N/A Fog , Snow Light Snow
4:00 AM 1 °F - -4 °F 71%  in 0 mi West 18.4 mph - - Snow Light Snow
4:55 AM 1.4 °F -18.8 °F -4.0 °F 78% 29.27 in 0.5 mi North 17.3 mph - N/A Fog Light Freezing Fog
5:55 AM -0.4 °F -22.8 °F -5.8 °F 78% 29.30 in 0.2 mi NE 20.7 mph - N/A Fog Light Freezing Fog
6:55 AM -0.4 °F -25.2 °F -5.8 °F 78% 29.30 in 0.1 mi NE 26.5 mph - N/A Fog , Snow Light Snow
7:00 AM -0 °F - -5 °F 69%  in 0 mi NE 26.5 mph - - Snow Light Snow
7:55 AM -0.4 °F -26.4 °F -5.8 °F 78% 29.30 in 0.1 mi NNE 29.9 mph - N/A Fog , Snow Light Snow
8:55 AM -0.4 °F -26.7 °F -5.8 °F 78% 29.33 in 0.1 mi NNE 31.1 mph - N/A Fog , Snow Light Snow
9:55 AM -0.4 °F -27.8 °F -5.8 °F 78% 29.36 in 0.1 mi NE 34.5 mph - N/A Fog , Snow Light Snow
10:00 AM -1 °F - -5 °F 72%  in 0 mi NE 34.5 mph - - Snow Light Snow
10:55 AM -0.4 °F -29.7 °F -5.8 °F 78% 29.36 in 0.1 mi NNE 41.4 mph - N/A Fog , Snow Light Snow
11:55 AM -0.4 °F -27.8 °F -5.8 °F 78% 29.42 in 0.1 mi NNE 34.5 mph - N/A Fog , Snow Light Snow
12:55 PM -0.4 °F -26.4 °F -5.8 °F 78% 29.44 in 0.1 mi NNE 29.9 mph - N/A Fog , Snow Light Snow
1:00 PM -0 °F - -5 °F 69%  in 0 mi NNE 29.9 mph - - Snow Light Snow
1:55 PM -0.4 °F -25.2 °F -5.8 °F 78% 29.47 in 0.2 mi NE 26.5 mph - N/A Fog Light Freezing Fog
2:55 PM -0.4 °F -26.7 °F -5.8 °F 78% 29.50 in 0.5 mi NE 31.1 mph - N/A Fog Light Freezing Fog
3:55 PM -0.4 °F -24.7 °F -5.8 °F 78% 29.56 in 1.9 mi NE 25.3 mph - N/A Snow Light Blowing Snow
4:00 PM -1 °F - -6 °F 69%  in 2 mi NE 25.3 mph - - Snow Low Drifting Snow
4:55 PM -0.4 °F -25.2 °F -5.8 °F 78% 29.56 in 6.2 mi NE 26.5 mph - N/A Snow Light Low Drifting Snow
5:55 PM -0.4 °F -28.5 °F -5.8 °F 78% 29.59 in - ENE 36.8 mph - N/A   Clear
6:55 PM -0.4 °F -30.0 °F -5.8 °F 78% 29.62 in - NE 42.6 mph - N/A   Clear
7:00 PM -0 °F - -5 °F 69%  in 6 mi NE 42.6 mph - -   Partly Cloudy
7:55 PM 1.4 °F -27.4 °F -4.0 °F 78% 29.65 in - ENE 42.6 mph - N/A   Clear
8:55 PM -0.4 °F -30.0 °F -4.0 °F 85% 29.65 in - NE 42.6 mph - N/A   Clear
9:55 PM -0.4 °F -29.7 °F -5.8 °F 78% 29.68 in - NE 41.4 mph - N/A   Clear
10:00 PM -0 °F - -5 °F 69%  in 6 mi NE 41.4 mph - -  
10:55 PM -0.4 °F -29.4 °F -5.8 °F 78% 29.68 in - NNE 40.3 mph - N/A   Clear
11:55 PM -0.4 °F -29.1 °F -5.8 °F 78% 29.71 in - NE 39.1 mph - N/A   Clear